When you browse on this site, cookies collect data to enhance your experience and personalize the content and advertising you see.
Visit our Privacy Policy to learn more. By continuing to use the site, you agree to this use of cookies and data.
  • en France
  • Liste des pays
  • À 7 jours
  • Température de l'eau
  • Carte satellitaire
  • Carte météo
  • Widgets météo
  • user-avatar
    Se connecter

    Météo par heure à Veliko Tarnovo

    Ce jour, 23 Mars, Samedi

    Heure Température Précipitation Vent Pression Humidité
    00:00 +9°C° 0 mm 1 m/s 745 mmHg 62%
    01:00 +9°C° 0 mm 1 m/s 745 mmHg 63%
    02:00 +8°C° 0 mm 1 m/s 745 mmHg 63%
    03:00 +7°C° 0 mm 0 m/s 745 mmHg 64%
    04:00 +7°C° 0 mm 0 m/s 745 mmHg 65%
    05:00 +6°C° 0 mm 0 m/s 745 mmHg 66%
    06:00 +7°C° 0 mm 0 m/s 745 mmHg 65%
    07:00 +8°C° 0 mm 0 m/s 745 mmHg 63%
    08:00 +10°C° 0 mm 0 m/s 745 mmHg 59%
    09:00 +12°C° 0 mm 1 m/s 745 mmHg 57%
    10:00 +13°C° 0 mm 1 m/s 744 mmHg 54%
    11:00 +15°C° 0 mm 2 m/s 744 mmHg 51%
    12:00 +15°C° 0 mm 2 m/s 744 mmHg 50%
    13:00 +16°C° 0 mm 2 m/s 744 mmHg 49%
    14:00 +17°C° 0 mm 3 m/s 743 mmHg 44%
    15:00 +17°C° 0 mm 3 m/s 743 mmHg 46%
    16:00 +16°C° 0 mm 3 m/s 743 mmHg 49%
    17:00 +14°C° 0 mm 3 m/s 742 mmHg 51%
    18:00 +13°C° 0 mm 3 m/s 743 mmHg 56%
    19:00 +11°C° 0 mm 3 m/s 743 mmHg 61%
    20:00 +9°C° 0 mm 2 m/s 743 mmHg 66%
    21:00 +9°C° 0 mm 3 m/s 744 mmHg 58%
    22:00 +9°C° 0 mm 3 m/s 744 mmHg 50%
    23:00 +9°C° 0 mm 3 m/s 744 mmHg 43%

    Demain, 24 Mars, Dimanche

    Heure Température Précipitation Vent Pression Humidité
    00:00 +9°C° 0 mm 2 m/s 744 mmHg 42%
    01:00 +8°C° 0 mm 2 m/s 744 mmHg 41%
    02:00 +9°C° 0 mm 1 m/s 744 mmHg 40%
    03:00 +8°C° 0 mm 1 m/s 744 mmHg 42%
    04:00 +8°C° 0 mm 1 m/s 744 mmHg 44%
    05:00 +6°C° 0 mm 0 m/s 744 mmHg 46%
    06:00 +7°C° 0 mm 0 m/s 744 mmHg 44%
    07:00 +7°C° 0 mm 0 m/s 744 mmHg 41%
    08:00 +8°C° 0 mm 0 m/s 744 mmHg 39%
    09:00 +10°C° 0 mm 1 m/s 744 mmHg 38%
    10:00 +12°C° 0 mm 1 m/s 744 mmHg 36%
    11:00 +13°C° 0 mm 1 m/s 744 mmHg 34%
    12:00 +14°C° 0 mm 1 m/s 743 mmHg 34%
    13:00 +14°C° 0 mm 1 m/s 743 mmHg 33%
    14:00 +15°C° 0 mm 2 m/s 743 mmHg 33%
    15:00 +15°C° 0 mm 2 m/s 742 mmHg 34%
    16:00 +15°C° 0 mm 1 m/s 742 mmHg 35%
    17:00 +15°C° 0 mm 1 m/s 741 mmHg 36%
    18:00 +13°C° 0 mm 1 m/s 741 mmHg 40%
    19:00 +12°C° 0 mm 1 m/s 741 mmHg 44%
    20:00 +10°C° 0 mm 1 m/s 741 mmHg 49%
    21:00 +10°C° 0 mm 1 m/s 741 mmHg 49%
    22:00 +10°C° 0 mm 1 m/s 741 mmHg 49%
    23:00 +9°C° 0 mm 1 m/s 741 mmHg 49%

    Après-demain, 25 Mars, Lundi

    Heure Température Précipitation Vent Pression Humidité
    00:00 +9°C° 0 mm 1 m/s 741 mmHg 51%
    01:00 +8°C° 0 mm 2 m/s 741 mmHg 52%
    02:00 +7°C° 0 mm 2 m/s 741 mmHg 53%
    03:00 +7°C° 0 mm 2 m/s 740 mmHg 54%
    04:00 +7°C° 0 mm 2 m/s 740 mmHg 55%
    05:00 +6°C° 0 mm 2 m/s 739 mmHg 56%
    06:00 +7°C° 0 mm 2 m/s 739 mmHg 55%
    07:00 +8°C° 0 mm 2 m/s 739 mmHg 54%
    08:00 +9°C° 0 mm 2 m/s 739 mmHg 53%
    09:00 +13°C° 0 mm 2 m/s 738 mmHg 46%
    10:00 +15°C° 0 mm 2 m/s 738 mmHg 40%
    11:00 +18°C° 0 mm 2 m/s 738 mmHg 33%
    12:00 +19°C° 0 mm 2 m/s 737 mmHg 31%
    13:00 +19°C° 0 mm 2 m/s 737 mmHg 28%
    14:00 +20°C° 0 mm 2 m/s 736 mmHg 25%
    15:00 +21°C° 0 mm 1 m/s 735 mmHg 27%
    16:00 +21°C° 0 mm 1 m/s 735 mmHg 29%
    17:00 +20°C° 0 mm 1 m/s 734 mmHg 31%
    18:00 +18°C° 0 mm 1 m/s 734 mmHg 36%
    19:00 +15°C° 0 mm 2 m/s 734 mmHg 41%
    20:00 +13°C° 0 mm 2 m/s 734 mmHg 46%
    21:00 +13°C° 0 mm 2 m/s 734 mmHg 49%
    22:00 +12°C° 0 mm 2 m/s 734 mmHg 52%
    23:00 +10°C° 0 mm 3 m/s 734 mmHg 55%

    26 Mars, Mardi

    Heure Température Précipitation Vent Pression Humidité
    00:00 +10°C° 0 mm 3 m/s 734 mmHg 56%
    01:00 +10°C° 0 mm 2 m/s 734 mmHg 57%
    02:00 +9°C° 0 mm 2 m/s 734 mmHg 58%
    03:00 +9°C° 0 mm 2 m/s 734 mmHg 58%
    04:00 +9°C° 0 mm 2 m/s 734 mmHg 59%
    05:00 +9°C° 0 mm 2 m/s 734 mmHg 59%
    06:00 +10°C° 0 mm 2 m/s 735 mmHg 58%
    07:00 +12°C° 0 mm 2 m/s 735 mmHg 57%
    08:00 +11°C° 0 mm 3 m/s 735 mmHg 56%
    09:00 +12°C° 0 mm 4 m/s 736 mmHg 58%
    10:00 +13°C° 0 mm 5 m/s 736 mmHg 60%
    11:00 +13°C° 0 mm 6 m/s 736 mmHg 62%
    12:00 +13°C° 0 mm 6 m/s 736 mmHg 61%
    13:00 +14°C° 0 mm 6 m/s 737 mmHg 60%
    14:00 +14°C° 0 mm 7 m/s 737 mmHg 58%
    15:00 +11°C° 0.1 mm 6 m/s 737 mmHg 64%
    16:00 +10°C° 0.1 mm 6 m/s 738 mmHg 69%
    17:00 +9°C° 0.1 mm 6 m/s 738 mmHg 74%
    18:00 +8°C° 0.2 mm 5 m/s 739 mmHg 77%
    19:00 +8°C° 0.2 mm 4 m/s 739 mmHg 80%
    20:00 +8°C° 0.2 mm 3 m/s 740 mmHg 84%
    21:00 +8°C° 0.4 mm 3 m/s 741 mmHg 83%
    22:00 +7°C° 0.4 mm 3 m/s 741 mmHg 83%
    23:00 +7°C° 0.4 mm 3 m/s 742 mmHg 83%

    27 Mars, Mercredi

    Heure Température Précipitation Vent Pression Humidité
    00:00 +7°C° 0.4 mm 2 m/s 742 mmHg 84%
    01:00 +7°C° 0.4 mm 2 m/s 742 mmHg 84%
    02:00 +7°C° 0.4 mm 1 m/s 743 mmHg 85%
    03:00 +7°C° 0.2 mm 1 m/s 743 mmHg 85%
    04:00 +7°C° 0.2 mm 1 m/s 743 mmHg 85%
    05:00 +6°C° 0.2 mm 2 m/s 743 mmHg 85%
    06:00 +6°C° 0.1 mm 2 m/s 744 mmHg 81%
    07:00 +6°C° 0.1 mm 2 m/s 744 mmHg 77%
    08:00 +6°C° 0.1 mm 2 m/s 744 mmHg 72%
    09:00 +7°C° 0 mm 2 m/s 745 mmHg 66%
    10:00 +8°C° 0 mm 2 m/s 745 mmHg 60%
    11:00 +9°C° 0 mm 2 m/s 745 mmHg 55%
    12:00 +10°C° 0 mm 2 m/s 745 mmHg 51%
    13:00 +12°C° 0 mm 2 m/s 745 mmHg 47%
    14:00 +13°C° 0 mm 2 m/s 745 mmHg 43%
    15:00 +12°C° 0 mm 2 m/s 745 mmHg 43%
    16:00 +12°C° 0 mm 2 m/s 745 mmHg 43%
    17:00 +12°C° 0 mm 2 m/s 745 mmHg 43%
    18:00 +10°C° 0 mm 2 m/s 745 mmHg 46%
    19:00 +10°C° 0 mm 1 m/s 745 mmHg 50%
    20:00 +9°C° 0 mm 1 m/s 746 mmHg 54%
    21:00 +8°C° 0 mm 1 m/s 746 mmHg 57%
    22:00 +7°C° 0 mm 1 m/s 746 mmHg 60%
    23:00 +7°C° 0 mm 1 m/s 746 mmHg 63%

    28 Mars, Jeudi

    Heure Température Précipitation Vent Pression Humidité
    00:00 +6°C° 0 mm 1 m/s 747 mmHg 65%
    01:00 +6°C° 0 mm 1 m/s 747 mmHg 66%
    02:00 +5°C° 0 mm 1 m/s 747 mmHg 68%
    03:00 +5°C° 0 mm 1 m/s 747 mmHg 69%
    04:00 +4°C° 0 mm 1 m/s 747 mmHg 69%
    05:00 +4°C° 0 mm 1 m/s 747 mmHg 70%
    06:00 +5°C° 0 mm 1 m/s 748 mmHg 66%
    07:00 +6°C° 0 mm 1 m/s 748 mmHg 62%
    08:00 +6°C° 0 mm 2 m/s 748 mmHg 57%
    09:00 +7°C° 0 mm 2 m/s 748 mmHg 52%
    10:00 +9°C° 0 mm 3 m/s 748 mmHg 47%
    11:00 +10°C° 0 mm 4 m/s 748 mmHg 42%
    12:00 +10°C° 0 mm 4 m/s 748 mmHg 40%
    13:00 +11°C° 0 mm 4 m/s 748 mmHg 38%
    14:00 +11°C° 0 mm 4 m/s 747 mmHg 36%
    15:00 +11°C° 0 mm 4 m/s 747 mmHg 36%
    16:00 +10°C° 0 mm 4 m/s 747 mmHg 35%
    17:00 +10°C° 0 mm 4 m/s 747 mmHg 34%
    18:00 +8°C° 0 mm 3 m/s 747 mmHg 39%
    19:00 +7°C° 0 mm 2 m/s 747 mmHg 44%
    20:00 +6°C° 0 mm 1 m/s 748 mmHg 49%
    21:00 +6°C° 0 mm 1 m/s 748 mmHg 53%
    22:00 +5°C° 0 mm 1 m/s 748 mmHg 56%
    23:00 +3°C° 0 mm 0 m/s 748 mmHg 59%
    Voir plus